"Pseudo-MPEC" for C377072

Created 2020 Oct 27 5:07:04 UT using Find_Orb

Click here for an explanation of pseudo-MPECs

 
 Astrometry: 
     C377072  C2020 07 29@VsAla'F@/?qC/_-@Dqk0kB!l'\@m#v@DV2$=n%]#D.GSH.Nl%s#F51
     C377072  C2020 08 11J;$=C`7j=hdDw@bEEyHCbIQ01%V6x3;Astrometrym7XjRI4I7y?F51
     C377072  C2020 08 11\P`xu_ww]_G4IXmIEmd8_v]kEK:7JZsTtKO3HMpbN^e`QE/v9MixF51
     C377072  C2020 08 11IiIQ]`Vq30k^:Y`A)Ihh/s3?predacted;l9$p?GsJ+YZFkH^_[DF51
     C377072  C2020 08 26ZG),i8ZW*]$CaNcG@HZ!$FL+ab?cHfR`F/rPlvM-$CpKd+?CeeI)F52
     C377072  C2020 08 26JeEik/71;QXJIbyj$Wgt(+mgJ6Ri95m$5\oDM[_Ymd\UZ6y^mg3vF52
     C377072  C2020 08 26rcwpp@/_44tJ]rRr21evmAV)tow;(Mh.je$:_gsUtDmGveYaQUTLF52
     C377072 KC2020 08 28e8FZibp*p`INU.U(q)dPP/=[K-*cSd,o'VSQqLev'mGdMfo)pXFQF52
     C377072  C2020 08 29wq^'5kEu;RnXIK^u64V][@0!59qn_E0`E,KAGRM;dv@KV6'9K!#MF51
     C377072  C2020 08 29kx_U!^@;deGi`nu3d_c*a4;Qo.#q2*b((!8]_XyIwF8^ohKYMi=5F51
     C377072  C2020 08 29#XfsgCjy',[d-sGl+o)GaApOFOW5lFmKffl00E7p!#T#I9#rv$Y=F51
     C377072  C2020 09 04.14170 16 32 26.65 +50 51 42.0    ~9J2q 20.4 GVNEOCPG96
     C377072  C2020 09 04.14742 16 32 26.14 +50 51 33.2    ~9J2q 21.2 GVNEOCPG96
     C377072  C2020 09 04.15312 16 32 25.74 +50 51 24.9    ~9J2q 21.1 GVNEOCPG96
     C377072  C2020 09 04.15884 16 32 25.49 +50 51 16.5    ~9J2q 20.6 GVNEOCPG96
     C377072  C2020 09 04tcI@-p@u,@gP2.Flc#f:Dx6H2.wOI3pi4kuT2l_xT_E=cE^C9(v*F51
     C377072  C2020 09 04*.l'7r(`_R)sx$(dJgc$bBCaZg!c_K+\bWp+jHcL349P8s84=yH*F51
     C377072  C2020 09 04TGm?rx!4U?jLiOp88BK5!s.maKF0/!NVHG(GHpVA`\1iRI(tNb/)F51
     C377072  C2020 09 04[vCiv-Sw5/]lG+W'W:8Fl;(AikPLLHIlxVEPF.P)TQhq.oNatI#jF51
     C377072  C2020 09 05EntKtwMDiThVTv`]Q7Hyuv7J%9MI9uwdJtlHcrVQ(1(hnY%N[X$1F51
     C377072  C2020 09 054;[9.cbG^`fbZX0xPg)Xx1FFj%uK]y\r:reH[NJsh6\nlTD3^V1oF51
     C377072  C2020 09 05VX`[-er,DFN0H/8r\.r\V?7TRu0dj@v*U)JNiriT(7=@dSLL]]kNF51
     C377072  C2020 09 18.12123 16 22 08.34 +45 15 43.5    ~9I47 20.1 GVNEOCPG96
     C377072  C2020 09 18.13259 16 22 07.94 +45 15 26.9    ~9I47 21.0 GVNEOCPG96
     C377072  C2020 09 18.14534 16 22 07.55 +45 15 08.1    ~9I47 21.3 GVNEOCPG96
     C377072  C2020 09 18.15030 16 22 07.49 +45 15 01.9    ~9I47 20.8 GVNEOCPG96
     C377072  C2020 09 18.19145 16 22 06.21 +45 14 02.0    ~9I57       VNEOCPV06
     C377072  C2020 09 18.19241 16 22 06.18 +45 14 00.9    ~9I57 22.0 GVNEOCPV06
     C377072  C2020 09 18.19568 16 22 06.11 +45 13 56.3    ~9I57 20.8 GVNEOCPV06
     C377072  C2020 09 18.19665 16 22 06.08 +45 13 55.3    ~9I57 21.1 GVNEOCPV06
     C377072 KC2020 09 197w#;GB7,xtV=6x,D[xaU:0h@GKeu=cxs$E;QmjaM.wnAal\p.QQqH21
     C377072 KC2020 09 19MV]MF$t+/?m]MDcu@$BclickN*-U[Y\lp_?p9ftmhere(oyk4F(;H21
     C377072 KC2020 09 19DEj#2uR=(aRawDW6'P^w@KPe9Pn.umx9q14#NqX;%jRwq\5MYURdH21
     C377072  C2020 09 19.10597 16 21 41.43 +44 52 27.4    ~9J37 20.5 GVNEOCPI52
     C377072  C2020 09 19.10765 16 21 41.38 +44 52 24.6    ~9J37 20.6 GVNEOCPI52
     C377072  C2020 09 19.11133 16 21 41.27 +44 52 19.2    ~9J37 21.2 GVNEOCPI52
     C377072  C2020 09 19.11301 16 21 41.24 +44 52 17.4    ~9J37 21.5 GVNEOCPI52
     C377072  C2020 09 20.18632 16 21 13.92 +44 27 00.5    ~9K4q       VNEOCPI52
     C377072  C2020 09 20.18884 16 21 13.88 +44 26 56.9    ~9K4q       VNEOCPI52
     C377072  C2020 09 20.19136 16 21 13.74 +44 26 53.4    ~9K4q       VNEOCPI52
     C377072  C2020 09 20.19388 16 21 13.79 +44 26 50.4    ~9K4q 21.9 GVNEOCPI52
     C377072 |C2020 09 21tk:By56x)a/qd7h\q!wPE)Mp?bDSqv=lBW4AG$s*e(U)sDeky=AxH06
     C377072 |C2020 09 21on@1ls]CjO?G=`HvZRa.E6,d'_[]\K+V]ROtO?#n@@TihuX_]#uiH06
     C377072 |C2020 09 21AV(#Xe_^K;u#Do,=r7l.ZcQVA69xe]?AevS+[k0Pfgt[skSs)[ccH06
     C377072 KC2020 09 27.11736416 19 07.28 +41 46 54.8    ~9R3M 20.37GVNEOCPI52
     C377072 KC2020 09 27.11988216 19 07.28 +41 46 51.4    ~9R3M 20.07GVNEOCPI52
     C377072 KC2020 09 27.12240316 19 07.18 +41 46 47.8    ~9R3M 20.03GVNEOCPI52
     C377072 KC2020 09 27.12492316 19 07.22 +41 46 44.6    ~9R3M 20.14GVNEOCPI52
     C377072 KC2020 10 05.08663416 18 11.48 +38 50 36.5    ~A52q 20.41GVNEOCPI52
     C377072 KC2020 10 05.09070816 18 11.45 +38 50 30.9    ~A52q 20.59GVNEOCPI52
     C377072 KC2020 10 05.09477316 18 11.43 +38 50 25.7    ~A52q 20.16GVNEOCPI52
     C377072 KC2020 10 05.09882116 18 11.40 +38 50 20.5    ~A52q       VNEOCPI52
     C377072 KC2020 10 09.12416616 18 13.67 +37 24 56.8    ~A9H7       VNEOCPI52
     C377072 KC2020 10 09.12950116 18 13.68 +37 24 50.2    ~A9H7       VNEOCPI52
     C377072 KC2020 10 09.13483716 18 13.68 +37 24 43.1    ~A9H7       VNEOCPI52
     C377072 KC2020 10 09.14016916 18 13.64 +37 24 36.2    ~A9H7 20.74GVNEOCPI52
     C377072 KC2020 10 10.14449216 18 17.17 +37 03 42.1    ~AA47 20.61GVNEOCPI52
     C377072 KC2020 10 10.14833516 18 17.16 +37 03 37.1    ~AA47 19.91GVNEOCPI52
     C377072 KC2020 10 10.15217816 18 17.19 +37 03 31.7    ~AA47 20.63GVNEOCPI52
     C377072 hC2020 10 122s^H363J/.i,tg-^NKl/D^=qg=S*Ze$4kT!;cd*IZY7A=/oCU%g9L01
     C377072 hC2020 10 12B_Z9l?sWC7E4E!)beg2yF#@f6aA;(57AI*3h#kenjymk\U0JA/JxL01
     C377072 hC2020 10 12Ph@)`5fOL-R0AA3f`[V`Nv]2FYBq1L9Plw6'=?-Jq=El*1SeBmmDL01
     C377072 hC2020 10 12i*0jc,;OX.%$+o_H4FM+crxG^+fZx3$gh1[uL0-[52@*KCrrpX5BL01
     C377072 KC2020 10 140]Z;#:97rZ/alj\UiSDUt)'q!SAYhcCKx^)8w@12OL$sbv(Q*Ma$711
     C377072 KC2020 10 140BOeupyc3Bi1'r$Xl5ju;HH#yQ.)Xoah76Sf`RPsus+Vk/47x%2m711
     C377072 KC2020 10 14'Zpe$cCNJ1?:?,K6NF/3VTvkEtJWAQk72WouTwfqn_WI0mw1V0gd711
     C377072 SC2020 10 15`X/4\fU41FFB;uwmO=dDAmforf4DQD.?.nQ=(4]]n)kxwhkM+/Ka711
     C377072 SC2020 10 15PM%bJxpr)gqJ7sstudLM,7'%xXC%v9^_=\/5fQi]!1NT,l3xxgil711
     C377072 SC2020 10 15A^iG4(_MEB7Zbh#yC)dL7K^qpL`Pr(4b)#DhPjdA$/(ZSeD%#owu711
     C377072 SC2020 10 15.nk4UB,70ntg9r][9a;ICuV/t5fC2aexplanationQ',?6(L'm@U711
     C377072 KC2020 10 20.09835116 19 43.40 +33 45 56.4    ~AK37       VNEOCPI52
     C377072 KC2020 10 20.10558216 19 43.47 +33 45 47.8    ~AK37       VNEOCPI52
     C377072 KC2020 10 20.10917916 19 43.50 +33 45 44.0    ~AK37 20.04GVNEOCPI52
     C377072 KC2020 10 20.11276716 19 43.55 +33 45 39.5    ~AK37       VNEOCPI52
     C377072 KC2020 10 21.10483816 19 56.79 +33 26 55.8    ~AL3M 19.94GVNEOCPI52
     C377072 KC2020 10 21.10876016 19 56.87 +33 26 51.1    ~AL3M 20.44GVNEOCPI52
     C377072 KC2020 10 21.11268616 19 57.03 +33 26 47.5    ~AL3M 20.23GVNEOCPI52
     C377072 KC2020 10 21.11719816 19 57.10 +33 26 44.2    ~AL3M       VNEOCPI52

Station data:
(711) McDonald Observatory, Fort Davis  (N30.671481 W104.021500)  US/Texas.
   0.76-m f/3.0 reflector.
(F51) Pan-STARRS 1, Haleakala  (N20.707235 W156.255910)  US/Hawaii.
   Observers N. Primak, A. Schultz, S. Watters, J. Thiel, T. Goggia. Measurer
   PS1 Science Consortium. 1.8-m Ritchey-Chrétien + CCD.
(F52) Pan-STARRS 2, Haleakala  (N20.707384 W156.255910)  US/Hawaii. 1.8-m
   Ritchey-Chrétien + CCD.
(G96) Mt. Lemmon Survey  (N32.442754 W110.788720)  US/Arizona.  Observers T.
   A. Pruyne, B. M. Africano, E. J. Christensen, G. A. Farneth, D. C. Fuls,
   A. R. Gibbs, A. D. Grauer, H. Gröller, J. A. Johnson, R. A. Kowalski, S.
   M. Larson, G. J. Leonard, D. Rankin, R. L. Seaman, F. C. Shelly. 1.5-m
   reflector + 10K CCD.
(H06) RAS Observatory, Mayhill  (N32.903325 W105.528700)  US/New
   Mexico.  Observers E. Guido, G. Sostero, V. Gonano, L. Donato.
(H21) Astronomical Research Observatory, Westfield  (N39.483057 W87.968270)
   US/Illinois. 0.76-m f/3.0 astrograph + CCD.
(I52) Steward Observatory, Mt. Lemmon Station  (N32.442547 W110.788920)
   US/Arizona.  Observers T. A. Pruyne, B. M. Africano, E. J. Christensen, G.
   A. Farneth, D. C. Fuls, A. R. Gibbs, A. D. Grauer, H. Gröller, J. A.
   Johnson, R. A. Kowalski, S. M. Larson, G. J. Leonard, D. Rankin, R. L.
   Seaman, F. C. Shelly. 1.0-m reflector + CCD.
(L01) Višnjan Observatory, Tičan  (N45.290900 E13.749300)  Croatia.
   Observers K. Korlević, E. Pettarin. Measurer E. Pettarin. 1.0-m f/2.9
   reflector + CCD.
(V06) Catalina Sky Survey-Kuiper  (N32.416847 W110.732550)  US/Arizona.
   Observers T. A. Pruyne, B. M. Africano, E. J. Christensen, G. A. Farneth,
   D. C. Fuls, A. R. Gibbs, A. D. Grauer, H. Gröller, J. A. Johnson, R. A.
   Kowalski, S. M. Larson, G. J. Leonard, D. Rankin, R. L. Seaman, F. C.
   Shelly. 1.55-m reflector + CCD.

Orbital elements:  C377072
   Perihelion 2021 Apr 10.922419 +/- 0.0125 TT = 22:08:17 (JD 2459315.422419)
Epoch 2020 Oct 21.0 TT = JDT 2459143.5                        AutoNEOCP
M 359.96181749 +/- 0.0006           (J2000 ecliptic)
n   0.00022209 +/- 3.61e-6          Peri.  160.32722 +/- 0.006
a 270.052463 +/- 2.94               Node    24.05249 +/- 0.0012
e   0.9912461 +/- 9.44e-5           Incl.  108.51732 +/- 0.00030
P4437.85                   H 15.1   G  0.15   U  4.3  
q 2.36399632 +/- 0.000182    Q 537.740930 +/- 5.77
From 78 observations 2020 July 29-Oct. 21; mean residual 0".48
Residuals in arcseconds: 
200729 F51  .06-  .36+    200918 V06  .75-  .60-    201009 I52  .18-  .82+    
200811 F51  .30+  .36-    200918 V06  .77-  .33-    201009 I52  .21-  .94+    
200811 F51  .16+  .25+    200918 V06  .52-  .25-    201009 I52  .36-  .57+    
200811 F51  .11+  .33+    200918 V06  .55-  .13+    201009 I52  1.0-  .40+    
200826 F52  .77-  .30-    200919 H21  .62+  .04+    201010 I52  .65+  .17+    
200826 F52  .52-  .11+    200919 H21  .50+  .75+    201010 I52  .36+  .02-    
200826 F52  .39-  .61-    200919 H21  .54+  .51+    201010 I52  .55+  .61-    
200828 F52  .33+  .31-    200919 I52  .35+  .54+    201012 L01  .16-  .30-    
200829 F51  .39-  .10-    200919 I52  .30+  .13+    201012 L01  .31+  .10+    
200829 F51  .00   .24-    200919 I52  .21+  .04-    201012 L01  .13-  .04+    
200829 F51  .01-  .00     200919 I52  .38+  .55+    201012 L01  .00   .06+    
200904 G96  1.8+  .48+    200920 I52  .28-  .19-    201014 711  .21+  .46-    
200904 G96  .37+  .00     200920 I52  .04-  .22-    201014 711  .02-  .65-    
